This is the latest recevied weather packets stored in our database for station/object PA1CD-13. If no packets are shown the sender has not sent any weather packets the latest 1 day(s).
| Time | Temp. | Humidity | Pressure | Rain* | Wind** | Luminosity | Snow |
|---|---|---|---|---|---|---|---|
| 1778001605 | 11.67° C | 54% | 1009.9 hPa | 0 mm | 1.79 m/s, 0° | 88 W/m² | - |
| 1778001484 | 11.67° C | 55% | 1009.9 hPa | 0 mm | 2.24 m/s, 0° | 100 W/m² | - |
| 1778001365 | 11.67° C | 55% | 1009.9 hPa | 0 mm | 1.79 m/s, 0° | 100 W/m² | - |
| 1778001244 | 11.67° C | 55% | 1009.8 hPa | 0 mm | 0.89 m/s, 0° | 83 W/m² | - |
| 1778001124 | 11.67° C | 55% | 1009.8 hPa | 0 mm | 0.89 m/s, 72° | 83 W/m² | - |
| 1778001005 | 11.67° C | 56% | 1009.8 hPa | 0 mm | 0.45 m/s, 79° | 81 W/m² | - |
| 1778000884 | 11.67° C | 56% | 1009.8 hPa | 0 mm | 0.89 m/s, 0° | 93 W/m² | - |
| 1778000764 | 11.67° C | 56% | 1009.8 hPa | 0 mm | 0.89 m/s, 54° | 102 W/m² | - |
| 1778000644 | 11.67° C | 56% | 1009.7 hPa | 0 mm | 2.24 m/s, 65° | 100 W/m² | - |
| 1778000524 | 11.67° C | 56% | 1009.9 hPa | 0 mm | 3.13 m/s, 0° | 100 W/m² | - |
| 1778000406 | 11.67° C | 56% | 1009.9 hPa | 0 mm | 0.45 m/s, 79° | 106 W/m² | - |
| 1778000284 | 11.67° C | 57% | 1009.9 hPa | 0 mm | 1.34 m/s, 0° | 125 W/m² | - |
| 1778000165 | 11.67° C | 56% | 1009.9 hPa | 0 mm | 1.79 m/s, 72° | 123 W/m² | - |
| 1778000044 | 11.67° C | 56% | 1010 hPa | 0 mm | 0.89 m/s, 69° | 109 W/m² | - |
| 1777999923 | 11.67° C | 56% | 1009.9 hPa | 0 mm | 1.79 m/s, 71° | 113 W/m² | - |
| 1777999804 | 11.67° C | 58% | 1009.9 hPa | 0 mm | 1.79 m/s, 0° | 183 W/m² | - |
| 1777999685 | 11.67° C | 58% | 1010 hPa | 0 mm | 2.68 m/s, 69° | 127 W/m² | - |
| 1777999563 | 11.67° C | 58% | 1010 hPa | 0 mm | 3.13 m/s, 0° | 125 W/m² | - |
| 1777999443 | 11.67° C | 59% | 1010 hPa | 0 mm | 2.68 m/s, 72° | 125 W/m² | - |
| 1777999322 | 11.67° C | 59% | 1010.1 hPa | 0 mm | 2.24 m/s, 76° | 178 W/m² | - |
| 1777999204 | 11.67° C | 58% | 1010 hPa | 0 mm | 2.68 m/s, 0° | 125 W/m² | - |
| 1777999083 | 11.67° C | 58% | 1010 hPa | 0 mm | 2.24 m/s, 0° | 120 W/m² | - |
| 1777998963 | 11.67° C | 58% | 1009.9 hPa | 0 mm | 2.24 m/s, 104° | 132 W/m² | - |
| 1777998842 | 11.67° C | 58% | 1010.1 hPa | 0 mm | 2.68 m/s, 86° | 162 W/m² | - |
| 1777998723 | 12.22° C | 59% | 1009.9 hPa | 0 mm | 1.34 m/s, 0° | 171 W/m² | - |
* Rain latest hour (hover to see other rain measurements)
** Current wind speed in m/s (hover to see current wind gust speed)